Terminal Aerodrome Forecast
Issued by NWS

Home | Current Version | Previous Version | Text Only | Print | Product List | Glossary On
Versions: 1 2 3 4 5 6 7 8 9 10 11 12 13 14 15 16 17 18 19 20 21 22 23 24 25 26 27 28 29 30 31 32 33 34 35 36 37 38 39 40 41 42 43 44 45 46 47 48 49 50
000
FTUS46 KSEW 061735
TAFSEA
TAF
KSEA 061735Z 0618/0724 22007KT P6SM SCT025 BKN050 BKN100
     FM062200 22007KT P6SM -SHRA SCT020 OVC040
      TEMPO 0622/0702 -TSRA SCT020 OVC035CB
     FM071200 19009KT P6SM -SHRA OVC020=

USA.gov is the U.S. government's official web portal to all federal, state and local government web resources and services.